Simultaneous Nadir Overpasses (SNOs) Predictions

Prediction of SNOs between GOES-17 and METOP-C Satellite Orbit:

Table of predicted SNOs for the next 14.0 days since TLE Epoch: 7/4/2025
Index Date Time (GOES-17) GOES-17 Lat,Lon METOP-C Lat,Lon Distance(km) Time Diff (sec)
1 07/05/2025 15:41:36 -0.02, -92.68 -0.13, -92.32 42.31 80
2 07/08/2025 03:37:12 0.02, -91.33 -0.10, -91.85 59.38 80
3 07/09/2025 03:19:10 0.03, -90.80 0.90, -86.82 452.24 80
4 07/10/2025 15:35:18 -0.03, -90.00 0.28, -91.34 153.22 80
5 07/11/2025 15:17:17 -0.03, -89.47 -0.72, -86.32 358.42 80
6 07/13/2025 03:33:35 0.03, -88.65 -0.44, -90.89 254.63 80
7 07/14/2025 03:15:34 0.04, -88.12 0.56, -85.87 257.43 80
8 07/15/2025 15:31:41 -0.04, -87.33 0.67, -90.37 346.99 80
9 07/16/2025 15:13:41 -0.04, -86.81 -0.39, -85.36 165.31 80
10 07/18/2025 03:29:57 0.03, -85.99 -0.87, -89.90 446.97 80
